EW5860 Weather Reports


time (UTC)temp
F
wind
direction
speed
knots
gust
knots
rain 1hr
in
rain 24hr
in
rain mn
in
humidity
%
barometer
mb
20260509014515 55 185 0.0 0.0 0.00 0.00 0.00 67 1012.5
20260509013018 55 185 0.0 0.0 0.00 0.00 0.00 68 1012.3
20260509011515 56 185 0.0 0.0 0.00 0.00 0.00 62 1012.1
20260509010019 57 185 0.0 0.0 0.00 0.00 0.00 60 1012.0
20260509004513 59 184 0.0 0.0 0.00 0.00 0.00 57 1011.7
20260509003020 59 184 0.0 0.0 0.00 0.00 0.00 57 1011.5
20260509001512 60 202 0.0 1.7 0.00 0.00 0.00 56 1011.3
20260509000012 61 205 0.9 1.7 0.00 0.00 0.00 51 1011.1
20260508234511 61 218 0.0 1.7 0.00 0.00 0.00 51 1011.0
20260508233011 62 231 0.0 1.7 0.00 0.00 0.00 52 1010.9
20260508231510 63 206 0.9 1.7 0.00 0.00 0.00 45 1010.8
20260508230009 63 266 0.0 0.9 0.00 0.00 0.00 46 1010.7
20260508224609 64 201 0.0 6.1 0.00 0.00 0.00 44 1010.6
20260508223025 64 232 0.0 1.7 0.00 0.00 0.00 44 1010.7
20260508221508 64 218 0.9 7.0 0.00 0.00 0.00 44 1010.7
20260508220010 64 232 2.6 11.3 0.00 0.00 0.00 42 1010.7
20260508214508 64 261 0.0 3.5 0.00 0.00 0.00 43 1010.7
20260508213009 64 254 0.9 5.2 0.00 0.00 0.00 42 1010.7
20260508211506 65 213 3.5 14.8 0.00 0.00 0.00 40 1010.7
20260508210006 67 257 3.5 9.6 0.00 0.00 0.00 39 1010.6
20260508204510 65 162 4.3 10.4 0.00 0.00 0.00 40 1010.7
20260508203002 64 242 5.2 12.2 0.00 0.00 0.00 40 1011.0
20260508201601 64 345 1.7 10.4 0.00 0.00 0.00 41 1011.4
20260508200100 64 257 4.3 10.4 0.00 0.00 0.00 41 1011.2
20260508194616 65 265 1.7 8.7 0.00 0.00 0.00 40 1011.1
20260508193110 63 250 6.1 16.5 0.00 0.00 0.00 39 1011.4
20260508191601 63 246 7.0 12.2 0.00 0.00 0.00 39 1011.4
20260508190055 64 281 3.5 10.4 0.00 0.00 0.00 38 1011.4
20260508184607 64 267 3.5 10.4 0.00 0.00 0.00 42 1011.5
20260508183054 63 219 2.6 10.4 0.00 0.00 0.00 41 1011.7
20260508181600 64 271 3.5 12.2 0.00 0.00 0.00 41 1011.6
20260508180052 64 240 4.3 9.6 0.00 0.00 0.00 43 1011.7
20260508174555 63 218 3.5 13.0 0.00 0.00 0.00 40 1011.9
20260508173050 63 232 4.3 15.6 0.00 0.00 0.00 40 1012.0
20260508171549 62 261 5.2 20.9 0.00 0.00 0.00 42 1012.3
20260508170048 62 216 4.3 20.0 0.00 0.00 0.00 42 1012.6
20260508164546 62 236 2.6 12.2 0.00 0.00 0.00 42 1012.3
20260508163047 61 101 7.0 19.1 0.00 0.00 0.00 42 1012.4
20260508161542 60 237 3.5 13.0 0.00 0.00 0.00 45 1012.6
20260508160059 59 217 7.8 14.8 0.00 0.00 0.00 42 1013.1
20260508154537 59 265 7.0 14.8 0.00 0.00 0.00 44 1013.5
20260508153043 58 219 6.1 12.2 0.00 0.00 0.00 43 1013.5
20260508151536 58 265 4.3 13.0 0.00 0.00 0.00 45 1013.5
20260508150035 56 220 3.5 8.7 0.00 0.00 0.00 47 1013.9
20260508144529 56 238 2.6 10.4 0.00 0.00 0.00 47 1013.9
20260508143031 55 171 2.6 6.1 0.00 0.00 0.00 52 1013.9
20260508141536 54 211 3.5 10.4 0.00 0.00 0.00 51 1014.0
20260508140025 55 219 2.6 8.7 0.00 0.00 0.00 51 1014.1
20260508134530 55 241 2.6 10.4 0.00 0.00 0.00 55 1014.2
20260508133024 54 218 1.7 4.3 0.00 0.00 0.00 58 1014.2
20260508131524 54 325 0.9 2.6 0.00 0.00 0.00 55 1014.3
20260508130023 53 325 0.0 1.7 0.00 0.00 0.00 57 1014.2
20260508124520 52 341 0.9 3.5 0.00 0.00 0.00 59 1014.2
20260508123020 51 218 0.0 1.7 0.00 0.00 0.00 64 1014.2
20260508121547 50 266 0.0 2.6 0.00 0.00 0.00 72 1014.2
20260508120019 47 263 0.0 1.7 0.00 0.00 0.00 81 1014.2
20260508114518 45 237 0.0 0.9 0.00 0.00 0.00 91 1014.1
20260508113017 43 237 0.0 0.0 0.00 0.00 0.00 95 1013.9
20260508111516 41 237 0.0 0.9 0.00 0.00 0.00 95 1014.0
20260508110014 40 283 0.0 0.0 0.00 0.00 0.00 94 1013.9
20260508104513 40 283 0.0 0.0 0.00 0.00 0.00 94 1013.6
20260508103015 39 283 0.0 0.0 0.00 0.00 0.00 93 1013.6
20260508101511 39 283 0.0 0.0 0.00 0.00 0.00 92 1013.7
20260508100009 40 283 0.0 0.0 0.00 0.00 0.00 92 1013.4
20260508094505 40 283 0.0 0.0 0.00 0.00 0.00 91 1013.2
20260508093004 41 283 0.0 0.0 0.00 0.00 0.00 90 1013.2
20260508091605 42 283 0.0 0.9 0.00 0.00 0.00 90 1013.2
20260508090100 42 327 0.0 0.0 0.00 0.00 0.00 89 1013.1
20260508084556 42 327 0.0 0.0 0.00 0.00 0.00 87 1013.0
20260508083131 43 327 0.0 0.0 0.00 0.00 0.00 85 1012.8
20260508081554 45 327 0.0 0.0 0.00 0.00 0.00 83 1012.6
20260508080053 46 327 0.0 0.9 0.00 0.00 0.00 80 1012.5
20260508074542 47 343 0.0 2.6 0.00 0.01 0.00 78 1012.3
20260508073043 48 20 0.0 2.6 0.00 0.01 0.00 77 1012.2
20260508071541 48 242 0.0 1.7 0.00 0.01 0.00 76 1012.1
20260508070035 49 325 0.9 5.2 0.00 0.01 0.00 74 1011.9
20260508064545 50 277 1.7 6.1 0.00 0.05 0.00 72 1011.8
20260508063033 50 306 1.7 5.2 0.00 0.05 0.00 70 1011.6
20260508061525 51 329 1.7 7.0 0.00 0.05 0.00 68 1011.5
20260508060023 52 251 0.0 6.1 0.00 0.05 0.00 66 1011.3
20260508054520 53 44 0.9 10.4 0.00 0.19 0.00 63 1011.1
20260508053015 53 278 0.0 1.7 0.00 0.19 0.00 65 1010.7
20260508051510 54 251 0.9 3.5 0.00 0.19 0.00 61 1010.2
20260508050007 54 127 0.0 4.3 0.00 0.19 0.00 61 1010.0
20260508044506 55 230 0.0 4.3 0.00 0.47 0.00 63 1009.7
20260508043005 55 44 1.7 9.6 0.00 0.47 0.00 65 1009.8
20260508041501 55 169 1.7 7.8 0.00 0.47 0.00 64 1009.4
20260508040112 55 188 2.6 7.0 0.00 0.47 0.00 62 1009.2
20260508034558 55 205 3.5 8.7 0.00 0.47 0.47 60 1009.2
20260508033102 55 227 3.5 7.8 0.00 0.47 0.47 59 1009.2
20260508031600 54 218 2.6 6.1 0.00 0.47 0.47 60 1009.2
20260508030116 52 209 0.9 2.6 0.00 0.47 0.47 68 1009.1
20260508024604 50 279 0.0 0.0 0.00 0.47 0.47 72 1009.1
20260508023055 49 279 0.0 0.0 0.00 0.47 0.47 73 1009.2
20260508021554 48 279 0.0 0.0 0.00 0.47 0.47 76 1009.2
20260508020054 48 279 0.0 0.0 0.00 0.47 0.47 75 1009.2